www.pogodaiklimat.ru

Погода и климат >> Архив погоды >> Украина >> Кривой Рог


АРХИВ ПОГОДЫ в Кривом Роге

Время (UTC), дата Ветер
(напр.,м/с)
 
Видим.   Явления Облачность Т
(С)
Тd
(С)
f
(%)
Тe
(С)
Тes
(С)
Комфортность P
(гПа)
Po
(гПа)
Тmin
(С)
Tmax
(С)
R
(мм)
R24
(мм)
S
(см)
00 14.11 СВ 3 10 км 8/8 840 м
[Sc]
-6.2 -11.2 68 -12 -12 очень
холодно
1033.6 1017.5
03 14.11 СВ 3 10 км 10/10 400 м
[St]
-6.0 -9.5 76 -11 -11 очень
холодно
1031.9 1015.8
06 14.11 В 4 10 км 10/10 300 м
[St]
-3.0 -6.5 77 -9 -9 очень
холодно
1030.6 1014.7 -7.4
09 14.11 В 1 10 км 10/10 480 м
[St]
-0.1 -5.1 69 -2 -2 прохладно 1029.2 1013.5
12 14.11 штиль 0 10 км 10/10 600 м
[Sc]
+1.5 -2.3 76 +1 +1 прохладно 1027.6 1012.0
15 14.11 СВ 2 10 км 10/10 700 м
[Sc]
+1.2 -2.0 79 -2 -2 прохладно 1026.5 1010.9
18 14.11 СВ 2 10 км 10/10 700 м
[Sc]
+1.4 -1.8 79 -2 -2 прохладно 1025.6 1010.1 +1.5
21 14.11 СВ 2 10 км 10/10 720 м
[Sc]
+1.7 -1.8 78 -1 -1 по сезону 1024.6 1009.1
00 15.11 СВ 1 10 км 10/10 540 м
[Sc]
+1.8 -0.1 87 0 0 по сезону 1023.9 1008.4
03 15.11 СВ 3 10 км в посл. час ливневой дождь 10/6 500 м
[Cb calv Ac und]
+1.3 +0.5 94 -3 -3 прохладно 1024.2 1008.7
06 15.11 СВ 5 10 км {ливн. осадки} 10/10 1080 м
[Sc]
+1.1 -0.0 92 -5 -5 прохладно 1025.3 1009.8 +1.0 0.5
09 15.11 СВ 6 10 км 10/10 1320 м
[Sc]
+2.4 -1.6 75 -3 -3 прохладно 1025.8 1010.3
12 15.11 СВ 7 10 км 8/0
[Ac trans]
+3.7 -3.0 62 -2 -2 холодно 1026.0 1010.6
15 15.11 СВ 6 10 км 10/0
[Ac und]
+2.3 -5.7 55 -3 -3 холодно 1027.7 1012.2
18 15.11 СВ 7 10 км 6/0
[Ac trans]
+0.7 -8.5 50 -5 -5 холодно 1028.5 1012.9 +4.2
21 15.11 СВ 8 10 км 3/0
[Ac trans]
-1.2 -12.3 43 -8 -8 очень
холодно
1028.8 1013.1
00 16.11 СВ 8 10 км 8/0
[Ac trans]
-0.7 -11.9 42 -8 -8 очень
холодно
1029.3 1013.6
03 16.11 СВ 7 10 км 10/0
[Ac und]
-1.2 -11.7 45 -8 -8 холодно 1029.7 1013.9
06 16.11 СВ 8 10 км 10/0
[Ac und]
-1.8 -11.8 46 -9 -9 очень
холодно
1030.5 1014.7 -1.9
09 16.11 СВ 9 2500 м ливневой снег 10/6 600 м
[Cb calv Ac und]
-1.8 -6.8 69 -10 -10 очень
холодно
1031.2 1015.4
12 16.11 СВ 8 10 км в посл. час снег {ливн. осадки} 10/10 330 м
[St]
-1.2 -2.2 93 -9 -9 очень
холодно
1031.2 1015.4
15 16.11 СВ 8 10 км 10/10 1050 м
[Sc]
+0.2 -4.4 71 -7 -7 очень
холодно
1031.8 1016.1
18 16.11 СВ 8 10 км 10/10 1380 м
[Sc]
+0.2 -5.5 65 -7 -7 холодно 1032.6 1016.9 +0.2 0.5
21 16.11 СВ 7 10 км 10/10 750 м
[Sc]
+0.2 -3.4 77 -7 -7 холодно 1033.1 1017.4
00 17.11 СВ 8 10 км слабый ливневой снег 10/6 600 м
[Cb calv Ac und]
-0.1 -4.8 71 -7 -7 холодно 1033.5 1017.8
03 17.11 СВ 5 5000 м слабый снег {ливн. осадки} 10/9 400 м
[Frnb As op]
-2.0 -3.5 89 -9 -9 очень
холодно
1034.0 1018.1
06 17.11 СВ 5 10 км {ливн. осадки, снег} 10/10 930 м
[Sc]
-1.4 -4.4 80 -8 -8 холодно 1034.3 1018.5 -2.0 1 <0.5
09 17.11 СВ 6 10 км 10/0
[Ac und]
-0.3 -5.4 68 -7 -6 очень
холодно
1034.3 1018.5
12 17.11 СВ 6 10 км 10/0
[Ac und]
+0.9 -6.0 60 -5 -5 очень
холодно
1033.5 1017.8
15 17.11 С 3 10 км 10/0
[Ac und]
+1.1 -7.4 53 -3 -3 прохладно 1033.9 1018.2
18 17.11 С 2 10 км 10/0
[Ac und]
+0.6 -7.3 55 -2 -2 по сезону 1033.0 1017.3 +1.6
21 17.11 СВ 3 10 км 10/0
[Ac und]
+0.5 -6.1 61 -4 -4 прохладно 1031.8 1016.1
00 18.11 С 1 10 км 10/10 540 м
[Sc]
-0.2 -6.0 65 -2 -2 по сезону 1031.0 1015.3
03 18.11 С 1 10 км 10/10 420 м
[St]
+0.6 -7.3 55 -1 -1 по сезону 1029.5 1013.9
06 18.11 штиль 0 10 км 10/10 420 м
[St]
+0.4 -5.1 67 -0 -0 по сезону 1028.4 1012.8 -0.2
09 18.11 штиль 0 10 км 10/10 400 м
[St]
+2.1 -3.3 67 +1 +1 по сезону 1026.9 1011.4
12 18.11 ЮЗ 2 10 км 10/10 480 м
[St]
+2.9 -1.3 74 0 0 прохладно 1025.6 1010.2
15 18.11 З 1 10 км 10/10 480 м
[St]
+2.2 -0.9 80 +1 +1 по сезону 1025.3 1009.8
18 18.11 штиль 0 10 км 10/10 600 м
[Sc]
+0.7 -1.6 85 -0 -0 по сезону 1025.4 1009.8 +3.0
21 18.11 Ю 1 10 км 10/10 450 м
[St]
+1.9 -0.3 85 0 0 по сезону 1025.4 1009.9
00 19.11 СВ 3 5000 м дымка 10/10 630 м
[Sc]
+0.3 -1.1 90 -4 -4 прохладно 1024.9 1009.3
03 19.11 СВ 4 4500 м дымка ясно -1.7 -2.3 96 -8 -8 холодно 1024.5 1008.8
06 19.11 СВ 4 5000 м дымка 8/0
[Ac trans Ci fib]
-2.3 -3.3 93 -8 -8 холодно 1024.4 1008.7 -2.3
09 19.11 В 7 10 км 10/0
[Ac trans Cs]
+3.2 -6.0 51 -2 -2 прохладно 1024.4 1009.0
12 19.11 СВ 6 10 км 10/0
[Ac und]
+3.9 -4.5 54 -1 -1 прохладно 1022.4 1007.1
15 19.11 СВ 7 10 км 10/0
[Ac und]
+3.1 -4.9 56 -3 -3 прохладно 1020.8 1005.4
18 19.11 В 9 5000 м слабый ливневой дождь со снегом 10/6 400 м
[Cb calv Ac und]
+1.7 -3.1 70 -5 -5 холодно 1018.7 1003.3 +3.9 0.1
21 19.11 В 11 10 км слабый ливневой дождь 10/6 420 м
[Cb calv Ac und]
+0.8 -1.2 86 -7 -7 холодно 1017.0 1001.6
00 20.11 СВ 9 1700 м дождь {ливн. осадки} 10/9 180 м
[Frnb As op]
+1.2 -0.2 90 -6 -6 холодно 1015.6 1000.2
03 20.11 СВ 9 2700 м слабая морось {дождь} 10/10 180 м
[St]
+1.6 +0.8 94 -6 -6 холодно 1015.4 1000.0
06 20.11 СВ 9 4000 м слабый дождь со снегом {морось} 10/9 180 м
[Frnb As op]
+0.2 -0.4 96 -8 -8 холодно 1017.8 1002.3 +0.2 8
09 20.11 СВ 8 10 км {снег, дождь} 10/10 270 м
[St]
+0.1 -2.0 86 -7 -7 очень
холодно
1019.8 1004.3
12 20.11 С 8 5000 м дымка {дождь} 10/10 210 м
[St]
-0.5 -2.3 88 -8 -8 очень
холодно
1021.2 1005.6
15 20.11 СВ 7 10 км 10/10 240 м
[St]
-0.6 -2.7 86 -8 -8 очень
холодно
1023.1 1007.5
18 20.11 СВ 6 10 км в посл. час снег 10/10 600 м
[Sc]
-0.2 -2.9 82 -7 -7 холодно 1024.2 1008.6 +0.2 0.6
21 20.11 СВ 4 10 км 3/0
[Cs]
-0.8 -4.0 79 -6 -6 холодно 1024.9 1009.3

 

Местоположение метеостанции Кривой Рог (Днепропетровская область, Украина): широта 48.03 долгота 33.22 высота над уровнем моря 124 м.

В архиве по умолчанию представлена погода в Кривом Роге за последнюю неделю. Архивные данные за месяц целиком и за предыдущие месяцы, начиная с января 2011 года, Вы можете получить, выбрав интересующий диапазон дат из раскрывающегося списка и нажав кнопку "Ввод!".


*Определитесь, кто Вы:
робот инопланетянин человек

Внимание! Время в таблицах - всемирное. Для получения местного времени необходимо прибавить поправку, которая в Кривом Роге равна 2 ч.

Смотрите также архив погоды в соседних городах и на ближайших метеорологических станциях:

Погода в Долинской (Кировоградская область, Украина) (35 км)
Погода в Комиссаровке (Днепропетровская область, Украина) (67 км)
Погода в Лошкарёвке (Днепропетровская область, Украина) (73 км)
Погода в Великой Александровке (Херсонская область, Украина) (79 км)
Погода в Бобринце (Кировоградская область, Украина) (80 км)
Погода в Знаменке (Кировоградская область, Украина) (87 км)
Погода в Баштанке (Николаевская область, Украина) (88 км)
Погода в Кропивницком (Кировоградская область, Украина) (93 км)
Погода в Никополе (Днепропетровская область, Украина) (105 км)
Погода в Светловодске (Кировоградская область, Украина) (113 км)

Пояснения к столбцам:

Ветер - указаны скорость ветра в м/с - средняя за 10 мин, порывы в срок и между сроками (в фигурных скобках) и направление, откуда дует ветер: С - северный, СВ - северо-восточный, В - восточный, ЮВ - юго-восточный, Ю - южный, ЮЗ - юго-западный, З - западный, СЗ - северо-западный.
Видимость - горизонтальная дальность видимости в метрах или километрах. При видимости от 1 до 10 км при отсутствии осадков обычно наблюдается дымка, при ухудшении видимости до 1 км и менее - туман. В сухую погоду видимость может ухудшаться дымом, пылью или мглою.
Явления - указаны атмосферные явления, наблюдавшиеся в срок или в последний час перед сроком; фигурными скобками обозначены явления, наблюдавшиеся между сроками (за 1-3 часа до срока); квадратными скобками обозначены град или гололедные отложения с указанием их диаметра в мм.
Облачность - указаны через наклонную черту общая и нижняя облачность в баллах и высота нижней границы облаков в метрах; квадратными скобками обозначены формы облаков: Ci - перистые, Cs - перисто-слоистые, Cc - перисто-кучевые, Ac - высококучевые, As - высокослоистые, Sc - слоисто-кучевые, Ns - слоисто-дождевые, Cu - кучевые, Cb - кучево-дождевые. Подробнее классификацию облаков см. в Атласе облаков (PDF).
T - Температура воздуха - температура, измеренная на высоте 2 м над землей.
Td - Температура точки росы - температура, при понижении до которой содержащийся в воздухе водяной пар достигнет насыщения.
f - Относительная влажность воздуха - влажноcть воздуха, измеренная на высоте 2 м над землей.
Te - Эффективная температура - температура, которую ощущает одетый по сезону человек в тени. Характеристика душности погоды. При расчете учитывается влияние влажности воздуха и скорости ветра на теплоощущения человека.
Tes - Эффективная температура на солнце - температура, которую ощущает человек, с поправкой на солнечный нагрев. Характеристика знойности погоды. Зависит от высоты солнца над горизонтом, облачности и скорости ветра. Ночью, в пасмурную погоду, а также при ветре 12 м/с и более поправка равна нулю.
P - Атмосферное давление - приведенное к уровню моря атмосферное давление.
Po - Атмосферное давление - измеренное на уровне метеостанции атмосферное давление.
Tmin - Минимальная температура - минимум температуры воздуха на высоте 2 м над землей.
Tmax - Максимальная температура - максимум температуры воздуха на высоте 2 м над землей.
R - Количество осадков - Количество выпавших осадков за период времени, мм. При наведении курсора мыши на число - период времени, за который выпало указанное количество осадков.
R24 - Количество осадков - Количество выпавших осадков за 24 часа, мм.
S - Снежный покров - Высота снежного покрова, см. При наведении курсора мыши на число - состояние снежного покрова и степень покрытия местности в баллах.